Location: Leganes-MADRID
(40.3441°N, 3.7527°W)
Time: 07:39:07
(UTC+02:00)

ISS - Visible Passes

Search period start: 03 October 2022 00:00
Search period end: 13 October 2022 00:00
Orbit: 416 x 419 km, 51.6° (Epoch: 02 October)

Date Brightness Start Highest point End Pass type
(mag) Time Alt. Az. Time Alt. Az. Time Alt. Az.
03 Oct -3.2 20:31:13 10° NW 20:34:27 42° NNE 20:37:17 12° ESE visible
03 Oct -1.3 22:08:21 10° W 22:10:13 20° WSW 22:10:13 20° WSW visible
04 Oct -2.6 21:19:53 10° WNW 21:23:04 39° SW 21:24:26 25° S visible
05 Oct -3.5 20:31:38 10° WNW 20:35:00 71° SW 20:38:21 10° SE visible
06 Oct -0.9 21:21:28 10° W 21:23:14 14° SW 21:24:59 10° SSW visible
07 Oct -1.4 20:32:30 10° WNW 20:35:15 23° SW 20:37:58 10° S visible
